| time (UTC) | temp F | wind direction | speed MPH | gust MPH | rain 1hr in | rain 24hr in | rain mn in | humidity % | barometer mb |
| 20260509062958 | 51 | 246 | 0.0 | 0.0 | 0.00 | 0.00 | 0.00 | 78 | 1006.5 |
| 20260509062500 | 51 | 246 | 0.0 | 0.0 | 0.00 | 0.00 | 0.00 | 78 | 1006.6 |
| 20260509062004 | 51 | 246 | 0.0 | 0.0 | 0.00 | 0.00 | 0.00 | 77 | 1006.6 |
| 20260509061459 | 51 | 246 | 0.0 | 0.0 | 0.00 | 0.00 | 0.00 | 77 | 1006.6 |
| 20260509060959 | 52 | 246 | 0.0 | 0.0 | 0.00 | 0.00 | 0.00 | 77 | 1006.6 |
| 20260509060459 | 52 | 246 | 0.0 | 0.0 | 0.00 | 0.00 | 0.00 | 77 | 1006.5 |
| 20260509060000 | 52 | 246 | 0.0 | 0.0 | 0.00 | 0.00 | 0.00 | 77 | 1006.6 |
| 20260509055500 | 52 | 246 | 0.0 | 0.0 | 0.00 | 0.00 | 0.00 | 77 | 1006.5 |
| 20260509054959 | 52 | 246 | 0.0 | 0.0 | 0.00 | 0.00 | 0.00 | 77 | 1006.6 |
| 20260509053959 | 52 | 246 | 0.0 | 0.0 | 0.00 | 0.00 | 0.00 | 77 | 1006.6 |
| 20260509053459 | 52 | 246 | 0.0 | 0.0 | 0.00 | 0.00 | 0.00 | 77 | 1006.6 |
| 20260509052959 | 52 | 246 | 0.0 | 0.0 | 0.00 | 0.00 | 0.00 | 77 | 1006.6 |
| 20260509052458 | 52 | 246 | 0.0 | 0.0 | 0.00 | 0.00 | 0.00 | 77 | 1006.6 |
| 20260509052000 | 52 | 246 | 0.0 | 0.0 | 0.00 | 0.00 | 0.00 | 77 | 1006.5 |
| 20260509050959 | 52 | 246 | 0.0 | 0.0 | 0.00 | 0.00 | 0.00 | 77 | 1006.5 |
| 20260509050458 | 52 | 246 | 0.0 | 0.0 | 0.00 | 0.00 | 0.00 | 76 | 1006.5 |
| 20260509050005 | 53 | 246 | 0.0 | 0.0 | 0.00 | 0.00 | 0.00 | 76 | 1006.4 |
| 20260509045500 | 53 | 246 | 0.0 | 0.0 | 0.00 | 0.00 | 0.00 | 76 | 1006.4 |
| 20260509043459 | 53 | 246 | 0.0 | 0.0 | 0.00 | 0.00 | 0.00 | 75 | 1006.3 |
| 20260509042959 | 54 | 246 | 0.0 | 0.0 | 0.00 | 0.00 | 0.00 | 75 | 1006.3 |
| 20260509042502 | 54 | 246 | 0.0 | 0.0 | 0.00 | 0.00 | 0.00 | 75 | 1006.2 |
| 20260509042000 | 54 | 246 | 0.0 | 0.0 | 0.00 | 0.00 | 0.00 | 75 | 1006.2 |
| 20260509041002 | 55 | 246 | 0.0 | 0.0 | 0.00 | 0.00 | 0.00 | 73 | 1006.1 |
| 20260509040002 | 56 | 246 | 0.0 | 0.0 | 0.00 | 0.00 | 0.00 | 72 | 1005.9 |
| 20260509035458 | 56 | 246 | 0.0 | 0.0 | 0.00 | 0.00 | 0.00 | 71 | 1005.9 |
| 20260509034959 | 56 | 246 | 0.0 | 0.0 | 0.00 | 0.00 | 0.00 | 70 | 1005.8 |
| 20260509034459 | 57 | 246 | 0.0 | 0.0 | 0.00 | 0.00 | 0.00 | 70 | 1005.7 |
| 20260509033959 | 57 | 246 | 0.0 | 0.0 | 0.00 | 0.00 | 0.00 | 70 | 1005.7 |
| 20260509031959 | 58 | 246 | 0.0 | 0.0 | 0.00 | 0.00 | 0.00 | 67 | 1005.4 |
| 20260509031505 | 59 | 246 | 0.0 | 0.0 | 0.00 | 0.00 | 0.00 | 67 | 1005.5 |
| 20260509030502 | 59 | 246 | 0.0 | 0.0 | 0.00 | 0.00 | 0.00 | 66 | 1005.4 |
| 20260509030006 | 59 | 246 | 0.0 | 0.0 | 0.00 | 0.00 | 0.00 | 65 | 1005.3 |
| 20260509025508 | 60 | 246 | 0.0 | 0.0 | 0.00 | 0.00 | 0.00 | 65 | 1005.3 |
| 20260509025007 | 60 | 246 | 0.0 | 2.0 | 0.00 | 0.00 | 0.00 | 64 | 1005.2 |
| 20260509024459 | 60 | 246 | 0.0 | 2.0 | 0.00 | 0.00 | 0.00 | 64 | 1005.2 |
| 20260509024000 | 60 | 246 | 0.0 | 2.0 | 0.00 | 0.00 | 0.00 | 63 | 1005.1 |
| 20260509022959 | 61 | 246 | 0.0 | 2.0 | 0.00 | 0.00 | 0.00 | 62 | 1005.1 |
| 20260509022459 | 61 | 246 | 0.0 | 4.0 | 0.00 | 0.00 | 0.00 | 61 | 1005.1 |
| 20260509021959 | 61 | 246 | 0.0 | 4.0 | 0.00 | 0.00 | 0.00 | 60 | 1005.2 |
| 20260509021500 | 61 | 247 | 0.0 | 1.0 | 0.00 | 0.00 | 0.00 | 61 | 1005.2 |
| 20260509020959 | 0 | 0.0 | 0.0 | 0.00 | 0.00 | 0.00 | 1005.2 | ||
| 20260509020500 | 0 | 0.0 | 0.0 | 0.00 | 0.00 | 0.00 | 1005.2 | ||
| 20260509015959 | 0 | 0.0 | 0.0 | 0.00 | 0.00 | 0.00 | 1005.2 | ||
| 20260509015000 | 0 | 0.0 | 0.0 | 0.00 | 0.00 | 0.00 | 1005.2 | ||
| 20260509014458 | 0 | 0.0 | 0.0 | 0.00 | 0.00 | 0.00 | 1005.2 | ||
| 20260509013458 | 0 | 0.0 | 0.0 | 0.00 | 0.00 | 0.00 | 1005.2 | ||
| 20260509013001 | 0 | 0.0 | 0.0 | 0.00 | 0.00 | 0.00 | 1005.2 | ||
| 20260509011006 | 0 | 0.0 | 0.0 | 0.00 | 0.00 | 0.00 | 1005.2 | ||
| 20260509010509 | 0 | 0.0 | 0.0 | 0.00 | 0.00 | 0.00 | 1005.3 | ||
| 20260509010005 | 0 | 0.0 | 0.0 | 0.00 | 0.00 | 0.00 | 1005.3 | ||
| 20260509005458 | 0 | 0.0 | 0.0 | 0.00 | 0.00 | 0.00 | 1005.3 | ||
| 20260509004958 | 62 | 292 | 0.0 | 6.0 | 0.00 | 0.00 | 0.00 | 55 | 1005.3 |
| 20260509004458 | 62 | 292 | 0.0 | 6.0 | 0.00 | 0.00 | 0.00 | 55 | 1005.3 |
| 20260509003959 | 62 | 292 | 0.0 | 6.0 | 0.00 | 0.00 | 0.00 | 55 | 1005.2 |
| 20260509003000 | 63 | 250 | 1.0 | 655.0 | 5.68 | 0.68 | 0.00 | 53 | |
| 20260509002459 | 63 | 253 | 0.0 | 5.0 | 0.00 | 0.00 | 0.00 | 53 | 1005.1 |
| 20260509001959 | 63 | 263 | 1.0 | 7.0 | 0.00 | 0.00 | 0.00 | 52 | 1005.2 |
| 20260509001506 | 63 | 236 | 2.0 | 8.0 | 0.00 | 0.00 | 0.00 | 52 | 1005.3 |
| 20260509000458 | 63 | 261 | 1.0 | 6.0 | 0.00 | 0.00 | 0.00 | 52 | 1005.0 |
| 20260508235958 | 63 | 233 | 2.0 | 6.0 | 0.00 | 0.00 | 0.00 | 52 | 1005.0 |
| 20260508235458 | 64 | 249 | 2.0 | 7.0 | 0.00 | 0.00 | 0.00 | 52 | 1005.0 |
| 20260508234502 | 64 | 263 | 2.0 | 6.0 | 0.00 | 0.00 | 0.00 | 53 | 1004.9 |
| 20260508233958 | 64 | 263 | 0.0 | 5.0 | 0.00 | 0.00 | 0.00 | 53 | 1005.0 |
| 20260508233502 | 63 | 260 | 2.0 | 7.0 | 0.00 | 0.00 | 0.00 | 53 | 1005.0 |
| 20260508232504 | 64 | 146 | 0.0 | 6.0 | 0.00 | 0.00 | 0.00 | 53 | 1005.0 |
| 20260508231959 | 64 | 256 | 2.0 | 6.0 | 0.00 | 0.00 | 0.00 | 52 | 1005.0 |
| 20260508231459 | 64 | 227 | 4.0 | 8.0 | 0.00 | 0.00 | 0.00 | 52 | 1005.1 |
| 20260508231001 | 64 | 221 | 4.0 | 8.0 | 0.00 | 0.00 | 0.00 | 53 | 1004.9 |
| 20260508230500 | 64 | 244 | 3.0 | 8.0 | 0.00 | 0.00 | 0.00 | 52 | 1005.0 |
| 20260508225000 | 64 | 281 | 8.0 | 11.0 | 0.00 | 0.00 | 0.00 | 55 | 1005.0 |
| 20260508224459 | 64 | 232 | 3.0 | 11.0 | 0.00 | 0.00 | 0.00 | 54 | 1005.1 |
| 20260508223958 | 64 | 247 | 2.0 | 7.0 | 0.00 | 0.00 | 0.00 | 54 | 1005.0 |
| 20260508223500 | 64 | 234 | 3.0 | 10.0 | 0.00 | 0.00 | 0.00 | 56 | 1004.9 |
| 20260508222958 | 64 | 219 | 5.0 | 10.0 | 0.00 | 0.00 | 0.00 | 53 | 1004.9 |
| 20260508222459 | 64 | 242 | 1.0 | 8.0 | 0.00 | 0.00 | 0.00 | 53 | 1005.0 |
| 20260508221959 | 64 | 251 | 2.0 | 6.0 | 0.00 | 0.00 | 0.00 | 53 | 1004.9 |
| 20260508221458 | 64 | 196 | 3.0 | 7.0 | 0.00 | 0.00 | 0.00 | 55 | 1004.9 |
| 20260508220958 | 64 | 249 | 4.0 | 7.0 | 0.00 | 0.00 | 0.00 | 54 | 1004.8 |
| 20260508220459 | 64 | 263 | 2.0 | 7.0 | 0.00 | 0.00 | 0.00 | 53 | 1004.8 |
| 20260508215959 | 64 | 297 | 0.0 | 8.0 | 0.00 | 0.00 | 0.00 | 54 | 1004.8 |
| 20260508213959 | 64 | 226 | 3.0 | 6.0 | 0.00 | 0.00 | 0.00 | 55 | 1004.8 |
| 20260508213503 | 63 | 249 | 5.0 | 6.0 | 0.00 | 0.00 | 0.00 | 53 | 1004.8 |
| 20260508212959 | 64 | 256 | 3.0 | 8.0 | 0.00 | 0.00 | 0.00 | 55 | 1004.8 |
| 20260508212458 | 63 | 245 | 4.0 | 8.0 | 0.00 | 0.00 | 0.00 | 54 | 1004.9 |
| 20260508212000 | 63 | 236 | 3.0 | 5.0 | 0.00 | 0.00 | 0.00 | 56 | 1004.9 |
| 20260508211000 | 62 | 223 | 5.0 | 12.0 | 0.00 | 0.00 | 0.00 | 55 | 1004.9 |
| 20260508210458 | 62 | 248 | 0.0 | 5.0 | 0.00 | 0.00 | 0.00 | 59 | 1004.9 |
| 20260508205958 | 62 | 215 | 1.0 | 7.0 | 0.00 | 0.00 | 0.00 | 56 | 1005.0 |
| 20260508205459 | 62 | 273 | 0.0 | 7.0 | 0.00 | 0.00 | 0.00 | 57 | 1005.0 |
| 20260508205000 | 62 | 246 | 0.0 | 4.0 | 0.00 | 0.00 | 0.00 | 58 | 1005.0 |
| 20260508203959 | 62 | 246 | 1.0 | 6.0 | 0.00 | 0.00 | 0.00 | 60 | 1005.1 |
| 20260508203459 | 62 | 211 | 5.0 | 6.0 | 0.00 | 0.00 | 0.00 | 58 | 1005.1 |
| 20260508202459 | 61 | 223 | 3.0 | 7.0 | 0.00 | 0.00 | 0.00 | 58 | 1005.2 |
| 20260508201500 | 61 | 234 | 3.0 | 8.0 | 0.00 | 0.00 | 0.00 | 60 | 1005.2 |
| 20260508200959 | 60 | 261 | 2.0 | 8.0 | 0.00 | 0.00 | 0.00 | 61 | 1005.3 |
| 20260508195505 | 59 | 252 | 4.0 | 10.0 | 0.00 | 0.00 | 0.00 | 62 | 1005.3 |
| 20260508194459 | 59 | 225 | 2.0 | 8.0 | 0.00 | 0.00 | 0.00 | 63 | 1005.2 |
| 20260508194001 | 59 | 272 | 1.0 | 8.0 | 0.00 | 0.00 | 0.00 | 66 | 1005.2 |
| 20260508193458 | 58 | 257 | 3.0 | 8.0 | 0.00 | 0.00 | 0.00 | 67 | 1005.2 |
| 20260508192959 | 58 | 288 | 1.0 | 8.0 | 0.00 | 0.00 | 0.00 | 66 | 1005.3 |
| 20260508192500 | 58 | 245 | 6.0 | 10.0 | 0.00 | 0.00 | 0.00 | 65 | 1005.3 |
| 20260508191958 | 58 | 298 | 2.0 | 10.0 | 0.00 | 0.00 | 0.00 | 64 | 1005.5 |
| 20260508191459 | 59 | 308 | 2.0 | 5.0 | 0.00 | 0.00 | 0.00 | 64 | 1005.4 |
| 20260508190504 | 58 | 231 | 5.0 | 10.0 | 0.00 | 0.00 | 0.00 | 66 | 1005.4 |
| 20260508185957 | 58 | 251 | 5.0 | 10.0 | 0.00 | 0.00 | 0.00 | 67 | 1005.5 |
| 20260508185459 | 58 | 311 | 2.0 | 8.0 | 0.00 | 0.00 | 0.00 | 67 | 1005.5 |
| 20260508184958 | 58 | 290 | 0.0 | 8.0 | 0.00 | 0.00 | 0.00 | 68 | 1005.3 |
| 20260508184500 | 57 | 247 | 3.0 | 8.0 | 0.00 | 0.00 | 0.00 | 69 | 1005.2 |
| 20260508183500 | 57 | 204 | 5.0 | 7.0 | 0.00 | 0.00 | 0.00 | 69 | 1005.2 |
| 20260508183003 | 57 | 256 | 4.0 | 9.0 | 0.00 | 0.00 | 0.00 | 70 | 1005.2 |
| 20260508182459 | 57 | 206 | 6.0 | 10.0 | 0.00 | 0.00 | 0.00 | 71 | 1005.2 |
| 20260508182004 | 57 | 233 | 3.0 | 10.0 | 0.00 | 0.00 | 0.00 | 68 | 1005.1 |
| 20260508180959 | 56 | 261 | 3.0 | 10.0 | 0.00 | 0.00 | 0.00 | 71 | 1005.0 |
| 20260508180459 | 56 | 247 | 2.0 | 8.0 | 0.00 | 0.00 | 0.00 | 70 | 1004.9 |
| 20260508175957 | 56 | 227 | 3.0 | 7.0 | 0.00 | 0.00 | 0.00 | 70 | 1004.8 |
| 20260508174958 | 55 | 300 | 3.0 | 7.0 | 0.00 | 0.00 | 0.00 | 72 | 1004.7 |
| 20260508174459 | 56 | 300 | 3.0 | 7.0 | 0.00 | 0.00 | 0.00 | 73 | 1004.7 |
| 20260508173959 | 55 | 231 | 2.0 | 6.0 | 0.00 | 0.00 | 0.00 | 72 | 1004.6 |
| 20260508173459 | 54 | 247 | 2.0 | 5.0 | 0.00 | 0.00 | 0.00 | 75 | 1004.5 |
| 20260508172959 | 53 | 220 | 0.0 | 5.0 | 0.00 | 0.00 | 0.00 | 74 | 1004.3 |
| 20260508172459 | 53 | 220 | 0.0 | 5.0 | 0.00 | 0.00 | 0.00 | 74 | 1004.5 |
| 20260508171458 | 53 | 295 | 1.0 | 4.0 | 0.00 | 0.00 | 0.00 | 77 | 1004.7 |
| 20260508170958 | 52 | 256 | 1.0 | 4.0 | 0.00 | 0.00 | 0.00 | 77 | 1004.8 |
| 20260508170501 | 52 | 241 | 0.0 | 1.0 | 0.00 | 0.00 | 0.00 | 77 | 1004.5 |
| 20260508170010 | 51 | 241 | 0.0 | 1.0 | 0.00 | 0.00 | 0.00 | 77 | 1004.2 |
| 20260508165459 | 51 | 241 | 0.0 | 1.0 | 0.00 | 0.00 | 0.00 | 77 | 1004.2 |
| 20260508165000 | 51 | 241 | 0.0 | 1.0 | 0.00 | 0.00 | 0.00 | 77 | 1004.1 |
| 20260508163959 | 50 | 241 | 1.0 | 1.0 | 0.00 | 0.00 | 0.00 | 77 | 1004.2 |
| 20260508163459 | 49 | 241 | 0.0 | 0.0 | 0.00 | 0.00 | 0.00 | 77 | 1004.3 |
| 20260508163000 | 49 | 241 | 0.0 | 1.0 | 0.00 | 0.00 | 0.00 | 77 | 1004.4 |
| 20260508162000 | 48 | 241 | 0.0 | 0.0 | 0.00 | 0.00 | 0.00 | 78 | 1004.4 |
| 20260508161500 | 48 | 241 | 0.0 | 0.0 | 0.00 | 0.00 | 0.00 | 79 | 1004.5 |
| 20260508160958 | 48 | 241 | 0.0 | 0.0 | 0.00 | 0.00 | 0.00 | 79 | 1004.6 |
| 20260508160459 | 48 | 241 | 0.0 | 0.0 | 0.00 | 0.00 | 0.00 | 79 | 1004.6 |
| 20260508160001 | 48 | 241 | 0.0 | 1.0 | 0.00 | 0.00 | 0.00 | 79 | 1004.7 |
| 20260508155458 | 48 | 241 | 0.0 | 2.0 | 0.00 | 0.00 | 0.00 | 79 | 1004.8 |
| 20260508154959 | 48 | 241 | 0.0 | 2.0 | 0.00 | 0.00 | 0.00 | 79 | 1004.8 |
| 20260508154500 | 48 | 243 | 0.0 | 3.0 | 0.00 | 0.00 | 0.00 | 79 | 1004.8 |
| 20260508153957 | 47 | 253 | 2.0 | 4.0 | 0.00 | 0.00 | 0.00 | 79 | 1004.9 |
| 20260508153458 | 47 | 256 | 1.0 | 4.0 | 0.00 | 0.00 | 0.00 | 79 | 1004.9 |
| 20260508153005 | 47 | 298 | 3.0 | 4.0 | 0.00 | 0.00 | 0.00 | 78 | 1005.0 |
| 20260508152458 | 47 | 253 | 2.0 | 4.0 | 0.00 | 0.00 | 0.00 | 78 | 1004.9 |
| 20260508152001 | 47 | 233 | 0.0 | 6.0 | 0.00 | 0.00 | 0.00 | 77 | 1005.0 |
| 20260508151458 | 47 | 212 | 1.0 | 6.0 | 0.00 | 0.00 | 0.00 | 76 | 1004.9 |
| 20260508150959 | 46 | 258 | 2.0 | 5.0 | 0.00 | 0.00 | 0.00 | 74 | 1005.0 |
| 20260508150458 | 46 | 292 | 1.0 | 5.0 | 0.00 | 0.00 | 0.00 | 73 | 1004.9 |
| 20260508145958 | 45 | 273 | 1.0 | 5.0 | 0.00 | 0.00 | 0.00 | 72 | 1004.9 |
| 20260508145458 | 45 | 258 | 1.0 | 6.0 | 0.00 | 0.00 | 0.00 | 70 | 1004.8 |
| 20260508145001 | 44 | 272 | 0.0 | 6.0 | 0.00 | 0.00 | 0.00 | 69 | 1004.7 |
| 20260508144458 | 44 | 244 | 0.0 | 6.0 | 0.00 | 0.00 | 0.00 | 69 | 1004.7 |
| 20260508143459 | 43 | 238 | 1.0 | 6.0 | 0.00 | 0.00 | 0.00 | 72 | 1004.4 |
| 20260508142959 | 42 | 248 | 0.0 | 1.0 | 0.00 | 0.00 | 0.00 | 73 | 1004.3 |
| 20260508142458 | 42 | 248 | 0.0 | 2.0 | 0.00 | 0.00 | 0.00 | 74 | 1004.3 |
| 20260508141959 | 42 | 248 | 0.0 | 2.0 | 0.00 | 0.00 | 0.00 | 74 | 1004.2 |
| 20260508141458 | 42 | 248 | 1.0 | 2.0 | 0.00 | 0.00 | 0.00 | 74 | 1004.0 |
| 20260508140959 | 42 | 248 | 0.0 | 0.0 | 0.00 | 0.00 | 0.00 | 75 | 1004.0 |
| 20260508140458 | 42 | 248 | 0.0 | 0.0 | 0.00 | 0.00 | 0.00 | 75 | 1003.9 |
| 20260508140002 | 42 | 248 | 0.0 | 0.0 | 0.00 | 0.00 | 0.00 | 75 | 1003.7 |
| 20260508135500 | 42 | 248 | 0.0 | 0.0 | 0.00 | 0.00 | 0.00 | 76 | 1003.6 |
| 20260508134958 | 42 | 248 | 0.0 | 0.0 | 0.00 | 0.00 | 0.00 | 76 | 1003.4 |
| 20260508134458 | 42 | 248 | 0.0 | 0.0 | 0.00 | 0.00 | 0.00 | 76 | 1003.4 |
| 20260508133958 | 42 | 248 | 0.0 | 0.0 | 0.00 | 0.00 | 0.00 | 76 | 1003.3 |
| 20260508133458 | 0 | 0.0 | 0.0 | 0.00 | 0.00 | 0.00 | 1003.2 | ||
| 20260508132959 | 0 | 0.0 | 0.0 | 0.00 | 0.00 | 0.00 | 1003.1 | ||
| 20260508132459 | 0 | 0.0 | 0.0 | 0.00 | 0.00 | 0.00 | 1003.1 | ||
| 20260508131959 | 0 | 0.0 | 0.0 | 0.00 | 0.00 | 0.00 | 1003.1 | ||
| 20260508131458 | 0 | 0.0 | 0.0 | 0.00 | 0.00 | 0.00 | 1003.0 | ||
| 20260508130959 | 0 | 0.0 | 0.0 | 0.00 | 0.00 | 0.00 | 1002.9 | ||
| 20260508130459 | 0 | 0.0 | 0.0 | 0.00 | 0.00 | 0.00 | 1002.9 | ||
| 20260508125458 | 0 | 0.0 | 0.0 | 0.00 | 0.00 | 0.00 | 1002.8 | ||
| 20260508124958 | 0 | 0.0 | 0.0 | 0.00 | 0.00 | 0.00 | 1002.8 | ||
| 20260508124000 | 0 | 0.0 | 0.0 | 0.00 | 0.00 | 0.00 | 1002.7 | ||
| 20260508123500 | 0 | 0.0 | 0.0 | 0.00 | 0.00 | 0.00 | 1002.7 | ||
| 20260508122959 | 0 | 0.0 | 0.0 | 0.00 | 0.00 | 0.00 | 1002.8 | ||
| 20260508122500 | 0 | 0.0 | 0.0 | 0.00 | 0.00 | 0.00 | 1002.7 | ||
| 20260508122000 | 0 | 0.0 | 0.0 | 0.00 | 0.00 | 0.00 | 1002.7 | ||
| 20260508121458 | 0 | 0.0 | 0.0 | 0.00 | 0.00 | 0.00 | 1002.8 | ||
| 20260508120459 | 0 | 0.0 | 0.0 | 0.00 | 0.00 | 0.00 | 1002.6 | ||
| 20260508120003 | 0 | 0.0 | 0.0 | 0.00 | 0.00 | 0.00 | 1002.5 | ||
| 20260508115459 | 0 | 0.0 | 0.0 | 0.00 | 0.00 | 0.00 | 1002.4 | ||
| 20260508114959 | 0 | 0.0 | 0.0 | 0.00 | 0.00 | 0.00 | 1002.4 | ||
| 20260508114502 | 0 | 0.0 | 0.0 | 0.00 | 0.00 | 0.00 | 1002.4 | ||
| 20260508113959 | 0 | 0.0 | 0.0 | 0.00 | 0.00 | 0.00 | 1002.3 | ||
| 20260508113459 | 0 | 0.0 | 0.0 | 0.00 | 0.00 | 0.00 | 1002.3 | ||
| 20260508112500 | 0 | 0.0 | 0.0 | 0.00 | 0.00 | 0.00 | 1002.4 | ||
| 20260508112003 | 0 | 0.0 | 0.0 | 0.00 | 0.00 | 0.00 | 1002.2 | ||
| 20260508111501 | 0 | 0.0 | 0.0 | 0.00 | 0.00 | 0.00 | 1002.2 | ||
| 20260508110959 | 0 | 0.0 | 0.0 | 0.00 | 0.00 | 0.00 | 1002.2 | ||
| 20260508110459 | 0 | 0.0 | 0.0 | 0.00 | 0.00 | 0.00 | 1002.1 | ||
| 20260508110000 | 0 | 0.0 | 0.0 | 0.00 | 0.00 | 0.00 | 1002.0 | ||
| 20260508105458 | 0 | 0.0 | 0.0 | 0.00 | 0.00 | 0.00 | 1002.0 | ||
| 20260508105000 | 0 | 0.0 | 0.0 | 0.00 | 0.00 | 0.00 | 1001.9 | ||
| 20260508104503 | 0 | 0.0 | 0.0 | 0.00 | 0.00 | 0.00 | 1001.9 | ||
| 20260508103959 | 0 | 0.0 | 0.0 | 0.00 | 0.00 | 0.00 | 1001.9 | ||
| 20260508102958 | 0 | 0.0 | 0.0 | 0.00 | 0.00 | 0.00 | 1001.8 | ||
| 20260508102459 | 0 | 0.0 | 0.0 | 0.00 | 0.00 | 0.00 | 1001.8 | ||
| 20260508101959 | 0 | 0.0 | 0.0 | 0.00 | 0.00 | 0.00 | 1001.8 | ||
| 20260508101458 | 0 | 0.0 | 0.0 | 0.00 | 0.00 | 0.00 | 1001.8 | ||
| 20260508100500 | 0 | 0.0 | 0.0 | 0.00 | 0.00 | 0.00 | 1001.8 | ||
| 20260508095458 | 0 | 0.0 | 0.0 | 0.00 | 0.00 | 0.00 | 1001.8 | ||
| 20260508094959 | 0 | 0.0 | 0.0 | 0.00 | 0.00 | 0.00 | 1001.8 | ||
| 20260508094459 | 0 | 0.0 | 0.0 | 0.00 | 0.00 | 0.00 | 1001.7 | ||
| 20260508093458 | 0 | 0.0 | 0.0 | 0.00 | 0.00 | 0.00 | 1001.6 | ||
| 20260508092958 | 0 | 0.0 | 0.0 | 0.00 | 0.00 | 0.00 | 1001.5 | ||
| 20260508091959 | 0 | 0.0 | 0.0 | 0.00 | 0.00 | 0.00 | 1001.5 | ||
| 20260508091457 | 0 | 0.0 | 0.0 | 0.00 | 0.00 | 0.00 | 1001.5 | ||
| 20260508090959 | 0 | 0.0 | 0.0 | 0.00 | 0.00 | 0.00 | 1001.5 | ||
| 20260508090000 | 0 | 0.0 | 0.0 | 0.00 | 0.00 | 0.00 | 1001.4 | ||
| 20260508084500 | 0 | 0.0 | 0.0 | 0.00 | 0.00 | 0.00 | 1001.4 | ||
| 20260508084000 | 0 | 0.0 | 0.0 | 0.00 | 0.00 | 0.00 | 1001.4 | ||
| 20260508083457 | 0 | 0.0 | 0.0 | 0.00 | 0.00 | 0.00 | 1001.4 | ||
| 20260508083001 | 0 | 0.0 | 0.0 | 0.00 | 0.00 | 0.00 | 1001.4 | ||
| 20260508082507 | 0 | 0.0 | 0.0 | 0.00 | 0.00 | 0.00 | 1001.4 | ||
| 20260508082002 | 0 | 0.0 | 0.0 | 0.00 | 0.00 | 0.00 | 1001.4 | ||
| 20260508081500 | 0 | 0.0 | 0.0 | 0.00 | 0.00 | 0.00 | 1001.3 | ||
| 20260508081009 | 0 | 0.0 | 0.0 | 0.00 | 0.00 | 0.00 | 1001.4 | ||
| 20260508080011 | 0 | 0.0 | 0.0 | 0.00 | 0.00 | 0.00 | 1001.3 | ||
| 20260508075001 | 0 | 0.0 | 0.0 | 0.00 | 0.00 | 0.00 | 1001.3 | ||
| 20260508074459 | 0 | 0.0 | 0.0 | 0.00 | 0.00 | 0.00 | 1001.3 | ||
| 20260508074001 | 0 | 0.0 | 0.0 | 0.00 | 0.00 | 0.00 | 1001.3 | ||
| 20260508073457 | 0 | 0.0 | 0.0 | 0.00 | 0.00 | 0.00 | 1001.4 | ||
| 20260508073001 | 0 | 0.0 | 0.0 | 0.00 | 0.00 | 0.00 | 1001.3 | ||
| 20260508072458 | 0 | 0.0 | 0.0 | 0.00 | 0.00 | 0.00 | 1001.3 | ||
| 20260508071458 | 0 | 0.0 | 0.0 | 0.00 | 0.00 | 0.00 | 1001.4 | ||
| 20260508070457 | 0 | 0.0 | 0.0 | 0.00 | 0.00 | 0.00 | 1001.4 | ||
| 20260508070004 | 0 | 0.0 | 0.0 | 0.00 | 0.00 | 0.00 | 1001.5 | ||
| 20260508065501 | 0 | 0.0 | 0.0 | 0.00 | 0.00 | 0.00 | 1001.5 | ||
| 20260508064603 | 0 | 0.0 | 0.0 | 0.00 | 0.00 | 0.00 | 1001.4 | ||
| 20260508064000 | 0 | 0.0 | 0.0 | 0.00 | 0.00 | 0.00 | 1001.4 | ||
| 20260508063505 | 0 | 0.0 | 0.0 | 0.00 | 0.00 | 0.00 | 1001.4 |